TimeEST,TemperatureF,Dew PointF,Humidity,Sea Level PressureIn,VisibilityMPH,Wind Direction,Wind SpeedMPH,Gust SpeedMPH,PrecipitationIn,Events,Conditions,WindDirDegrees,DateUTC
12:54 AM,-2.9,-8.0,79,29.95,10.0,Calm,Calm,-,N/A,,Overcast,0,2013-02-05 05:54:00
1:54 AM,-4.0,-9.9,76,29.93,10.0,NW,3.5,-,N/A,,Clear,310,2013-02-05 06:54:00
2:54 AM,-9.9,-16.1,74,29.93,10.0,Calm,Calm,-,N/A,,Clear,0,2013-02-05 07:54:00
3:54 AM,-9.9,-16.1,74,29.91,10.0,Calm,Calm,-,N/A,,Clear,0,2013-02-05 08:54:00
4:54 AM,-11.0,-18.0,71,29.89,10.0,Calm,Calm,-,N/A,,Partly Cloudy,0,2013-02-05 09:54:00
5:54 AM,-0.9,-7.1,75,29.86,10.0,Calm,Calm,-,N/A,,Overcast,0,2013-02-05 10:54:00
6:54 AM,3.9,-0.9,80,29.84,10.0,SE,5.8,-,N/A,,Overcast,140,2013-02-05 11:54:00
7:54 AM,7.0,1.9,80,29.83,10.0,SSE,4.6,-,N/A,,Overcast,150,2013-02-05 12:54:00
8:54 AM,10.9,5.0,77,29.82,10.0,SSE,6.9,-,N/A,,Overcast,160,2013-02-05 13:54:00
9:07 AM,12.2,6.8,79,29.77,1.8,SSE,6.9,-,0.00,Snow,Light Snow,160,2013-02-05 14:07:00
10:13 AM,14.0,10.4,86,29.75,0.8,SSE,5.8,-,0.00,Snow,Light Snow,150,2013-02-05 15:13:00
10:25 AM,15.8,10.4,79,29.73,1.5,SSE,6.9,-,0.00,Snow,Light Snow,160,2013-02-05 15:25:00
10:33 AM,15.8,10.4,79,29.73,3.0,South,6.9,-,0.00,Snow,Light Snow,170,2013-02-05 15:33:00
10:38 AM,15.8,10.4,79,29.73,2.5,SSE,8.1,-,0.00,Snow,Light Snow,160,2013-02-05 15:38:00
10:51 AM,15.8,12.2,86,29.72,1.5,South,8.1,-,0.00,Snow,Light Snow,170,2013-02-05 15:51:00
10:54 AM,16.0,12.0,84,29.78,1.5,South,8.1,-,0.00,Snow,Light Snow,170,2013-02-05 15:54:00
11:03 AM,17.6,12.2,79,29.71,1.0,South,8.1,-,0.00,Snow,Light Snow,170,2013-02-05 16:03:00
11:54 AM,19.0,12.9,77,29.75,2.0,South,6.9,-,0.00,Snow,Light Snow,190,2013-02-05 16:54:00
12:20 PM,19.4,14.0,80,29.67,1.8,South,8.1,-,0.00,Snow,Light Snow,170,2013-02-05 17:20:00
12:43 PM,21.2,15.8,80,29.66,2.5,South,8.1,-,0.00,Snow,Light Snow,180,2013-02-05 17:43:00
12:54 PM,21.0,15.1,78,29.70,1.8,SSW,6.9,16.1,0.00,Snow,Light Snow,200,2013-02-05 17:54:00
1:21 PM,21.2,15.8,80,29.64,2.5,South,9.2,-,0.00,Snow,Light Snow,190,2013-02-05 18:21:00
1:26 PM,21.2,15.8,80,29.65,3.0,SSW,11.5,21.9,0.00,Snow,Light Snow,200,2013-02-05 18:26:00
1:33 PM,21.2,15.8,80,29.64,2.0,SSW,10.4,18.4,0.00,Snow,Light Snow,210,2013-02-05 18:33:00
1:41 PM,21.2,15.8,80,29.64,1.8,South,11.5,19.6,0.00,Snow,Light Snow,190,2013-02-05 18:41:00
1:54 PM,21.9,16.0,78,29.69,1.5,SSW,10.4,-,0.00,Snow,Light Snow,200,2013-02-05 18:54:00
2:19 PM,21.2,17.6,86,29.65,0.5,WSW,6.9,-,0.00,Fog-Snow,Snow,240,2013-02-05 19:19:00
2:26 PM,21.2,17.6,86,29.65,1.0,West,6.9,-,0.00,Snow,Light Snow,270,2013-02-05 19:26:00
2:41 PM,21.2,15.8,80,29.66,1.5,NW,18.4,21.9,0.01,Snow,Light Snow,320,2013-02-05 19:41:00
2:54 PM,19.0,14.0,81,29.73,1.2,NW,13.8,23.0,0.01,Snow,Light Snow,310,2013-02-05 19:54:00
3:01 PM,19.4,12.2,74,29.67,1.2,WNW,13.8,-,0.00,Snow,Light Snow,300,2013-02-05 20:01:00
3:35 PM,17.6,12.2,79,29.69,3.0,WNW,9.2,-,0.00,Snow,Light Snow,300,2013-02-05 20:35:00
3:43 PM,17.6,12.2,79,29.70,6.0,NW,12.7,-,0.00,Snow,Light Snow,310,2013-02-05 20:43:00
3:54 PM,18.0,12.0,78,29.76,10.0,WNW,12.7,-,0.00,,Overcast,300,2013-02-05 20:54:00
4:02 PM,17.6,10.4,73,29.71,10.0,WNW,13.8,20.7,N/A,,Overcast,290,2013-02-05 21:02:00
4:12 PM,17.6,10.4,73,29.72,10.0,WNW,16.1,24.2,N/A,,Mostly Cloudy,290,2013-02-05 21:12:00
4:54 PM,17.1,9.0,71,29.80,10.0,WNW,10.4,-,N/A,,Partly Cloudy,290,2013-02-05 21:54:00
5:54 PM,12.0,7.0,80,29.82,10.0,West,4.6,-,N/A,,Clear,280,2013-02-05 22:54:00
6:54 PM,12.0,7.0,80,29.85,8.0,West,3.5,-,N/A,,Overcast,280,2013-02-05 23:54:00
7:36 PM,17.6,12.2,79,29.82,10.0,WNW,12.7,-,N/A,,Overcast,300,2013-02-06 00:36:00
7:54 PM,18.0,12.0,78,29.88,10.0,NW,15.0,-,N/A,,Mostly Cloudy,310,2013-02-06 00:54:00
8:54 PM,18.0,10.0,71,29.92,10.0,WNW,12.7,-,N/A,,Partly Cloudy,300,2013-02-06 01:54:00
9:54 PM,16.0,9.0,74,29.94,10.0,NW,12.7,-,N/A,,Clear,310,2013-02-06 02:54:00
10:54 PM,15.1,10.0,80,29.97,10.0,WNW,16.1,21.9,N/A,,Clear,300,2013-02-06 03:54:00
11:54 PM,12.9,5.0,71,30.00,10.0,NW,17.3,-,N/A,,Clear,310,2013-02-06 04:54:00